,�O�C���x[��],����1,�O�C���x[��],����2,���ԉ��x[��],����3,���Ԏ��x[��],����4,�m��2(��󒲎�)���x[��],����5,����[��],����6
2004/6/1 0:00,18.7,0,83,0 ,26.3,0 ,68,0 ,25.8,0 ,24,0 
2004/6/1 0:15,18.8,0,67,0 ,26.3,0 ,67,0 ,25.7,0 ,24.1,0 
2004/6/1 0:30,18.7,0,65,0 ,26.3,0 ,67,0 ,25.7,0 ,24.1,0 
2004/6/1 0:45,18.6,0,64,0 ,26.3,0 ,67,0 ,25.7,0 ,24.2,0 
2004/6/1 1:00,18.6,0,63,0 ,26.3,0 ,66,0 ,25.6,0 ,24.2,0 
2004/6/1 1:15,18.4,0,66,0 ,26.2,0 ,66,0 ,25.6,0 ,24.3,0 
2004/6/1 1:30,17.8,0,68,0 ,26.2,0 ,66,0 ,25.5,0 ,24.3,0 
2004/6/1 1:45,17.8,0,70,0 ,26.2,0 ,65,0 ,25.5,0 ,24.3,0 
2004/6/1 2:00,16.8,0,79,0 ,26.1,0 ,65,0 ,25.5,0 ,24.4,0 
2004/6/1 2:15,17,0,78,0 ,26.1,0 ,64,0 ,25.4,0 ,24.4,0 
2004/6/1 2:30,16.4,0,79,0 ,26,0 ,64,0 ,25.4,0 ,24.4,0 
2004/6/1 2:45,16.1,0,85,0 ,26,0 ,64,0 ,25.4,0 ,24.4,0 
2004/6/1 3:00,16.2,0,86,0 ,26,0 ,64,0 ,25.3,0 ,24.4,0 
2004/6/1 3:15,15.9,0,87,0 ,26,0 ,63,0 ,25.3,0 ,24.5,0 
2004/6/1 3:30,15.8,0,88,0 ,25.9,0 ,63,0 ,25.3,0 ,24.5,0 
2004/6/1 3:45,15.9,0,88,0 ,25.9,0 ,63,0 ,25.3,0 ,24.5,0 
2004/6/1 4:00,16.1,0,88,0 ,25.9,0 ,62,0 ,25.2,0 ,24.5,0 
2004/6/1 4:15,16.3,0,83,0 ,25.8,0 ,62,0 ,25.2,0 ,24.5,0 
2004/6/1 4:30,16.2,0,85,0 ,25.8,0 ,62,0 ,25.2,0 ,24.5,0 
2004/6/1 4:45,16,0,87,0 ,25.8,0 ,62,0 ,25.2,0 ,24.6,0 
2004/6/1 5:00,16,0,83,0 ,25.7,0 ,62,0 ,25.2,0 ,24.6,0 
2004/6/1 5:15,16.6,0,67,0 ,25.7,0 ,62,0 ,25.1,0 ,24.6,0 
2004/6/1 5:30,16.4,0,69,0 ,25.7,0 ,61,0 ,25.1,0 ,24.6,0 
2004/6/1 5:45,16.1,0,74,0 ,25.7,0 ,61,0 ,25.1,0 ,24,0 
2004/6/1 6:00,16.6,0,72,0 ,25.7,0 ,61,0 ,25.2,0 ,24,0 
2004/6/1 6:15,16.4,0,73,0 ,25.7,0 ,62,0 ,25.2,0 ,23.2,0 
2004/6/1 6:30,16.5,0,74,0 ,25.7,0 ,62,0 ,25.4,0 ,23.2,0 
2004/6/1 6:45,16.1,0,74,0 ,25.7,0 ,63,0 ,25.4,0 ,23.3,0 
2004/6/1 7:00,15.6,0,77,0 ,25.8,0 ,63,0 ,25.4,0 ,23.4,0 
2004/6/1 7:15,16.3,0,76,0 ,25.3,0 ,60,0 ,25.5,0 ,23.5,0 
2004/6/1 7:30,16.4,0,69,0 ,25.5,0 ,61,0 ,25.5,0 ,23.6,0 
2004/6/1 7:45,16.6,0,68,0 ,25.5,0 ,61,0 ,25.4,0 ,23.6,0 
2004/6/1 8:00,16.7,0,68,0 ,25.5,0 ,61,0 ,25.4,0 ,23.7,0 
2004/6/1 8:15,17,0,69,0 ,25.6,0 ,61,0 ,25.3,0 ,23.7,0 
2004/6/1 8:30,17.1,0,69,0 ,25.6,0 ,61,0 ,25.3,0 ,23.8,0 
2004/6/1 8:45,17,0,68,0 ,25.6,0 ,60,0 ,25.2,0 ,23.8,0 
2004/6/1 9:00,17,0,68,0 ,25.6,0 ,60,0 ,25.2,0 ,23.9,0 
2004/6/1 9:15,16.4,0,76,0 ,25.6,0 ,60,0 ,25.1,0 ,24,0 
2004/6/1 9:30,16.5,0,77,0 ,25.6,0 ,60,0 ,25.1,0 ,24,0 
2004/6/1 9:45,17.1,0,72,0 ,25.7,0 ,61,0 ,25.1,0 ,24,0 
2004/6/1 10:00,16.8,0,68,0 ,25.7,0 ,61,0 ,25.1,0 ,24.1,0 
2004/6/1 10:15,17.3,0,64,0 ,25.7,0 ,61,0 ,25.1,0 ,24.1,0 
2004/6/1 10:30,17.8,0,63,0 ,25.7,0 ,62,0 ,25.1,0 ,24.1,0 
2004/6/1 10:45,18.7,0,59,0 ,25.7,0 ,62,0 ,25.1,0 ,24.2,0 
2004/6/1 11:00,19.1,0,56,0 ,25.8,0 ,61,0 ,25.1,0 ,24.2,0 
2004/6/1 11:15,18.7,0,56,0 ,25.8,0 ,61,0 ,25.1,0 ,24.2,0 
2004/6/1 11:30,18.9,0,55,0 ,25.8,0 ,62,0 ,25.1,0 ,24.3,0 
2004/6/1 11:45,19.2,0,55,0 ,25.8,0 ,62,0 ,25.1,0 ,24.3,0 
2004/6/1 12:00,19.4,0,52,0 ,25.8,0 ,62,0 ,25.1,0 ,24.3,0 
2004/6/1 12:15,19.9,0,52,0 ,25.8,0 ,62,0 ,25.2,0 ,24.4,0 
2004/6/1 12:30,20.2,0,43,0 ,25.8,0 ,62,0 ,25.2,0 ,24.4,0 
2004/6/1 12:45,20.7,0,36,0 ,25.8,0 ,61,0 ,25.2,0 ,24.4,0 
2004/6/1 13:00,20.9,0,38,0 ,25.8,0 ,61,0 ,25.1,0 ,24.5,0 
2004/6/1 13:15,21.4,0,36,0 ,25.8,0 ,61,0 ,25.1,0 ,24.5,0 
2004/6/1 13:30,21.6,0,45,0 ,25.8,0 ,61,0 ,25.2,0 ,24.5,0 
2004/6/1 13:45,21.6,0,41,0 ,25.8,0 ,61,0 ,25.2,0 ,24.5,0 
2004/6/1 14:00,21.9,0,37,0 ,25.8,0 ,61,0 ,25.2,0 ,24.6,0 
2004/6/1 14:15,22,0,36,0 ,25.8,0 ,61,0 ,25.2,0 ,24.6,0 
2004/6/1 14:30,22.1,0,35,0 ,25.8,0 ,61,0 ,25.2,0 ,24.6,0 
2004/6/1 14:45,22.3,0,35,0 ,25.8,0 ,61,0 ,25.2,0 ,24.7,0 
2004/6/1 15:00,22.4,0,36,0 ,25.8,0 ,61,0 ,25.2,0 ,24.7,0 
2004/6/1 15:15,22.4,0,36,0 ,25.8,0 ,61,0 ,25.2,0 ,24.7,0 
2004/6/1 15:30,22.6,0,38,0 ,25.8,0 ,61,0 ,25.2,0 ,24.7,0 
2004/6/1 15:45,22.7,0,40,0 ,25.8,0 ,61,0 ,25.2,0 ,24.7,0 
2004/6/1 16:00,22.7,0,39,0 ,25.8,0 ,61,0 ,25.2,0 ,24.8,0 
2004/6/1 16:15,22.5,0,39,0 ,25.9,0 ,61,0 ,25.2,0 ,24.8,0 
2004/6/1 16:30,22.5,0,41,0 ,25.9,0 ,61,0 ,25.3,0 ,24.8,0 
2004/6/1 16:45,22.5,0,41,0 ,25.9,0 ,61,0 ,25.4,0 ,24.8,0 
2004/6/1 17:00,22.5,0,44,0 ,25.9,0 ,61,0 ,25.6,0 ,24.9,0 
2004/6/1 17:15,22.4,0,45,0 ,25.8,0 ,62,0 ,25.8,0 ,24.9,0 
2004/6/1 17:30,22.5,0,45,0 ,25.9,0 ,62,0 ,25.9,0 ,24.9,0 
2004/6/1 17:45,22.5,0,45,0 ,25.9,0 ,62,0 ,25.9,0 ,24.9,0 
2004/6/1 18:00,22.5,0,44,0 ,25.9,0 ,62,0 ,25.9,0 ,25,0 
2004/6/1 18:15,22.4,0,43,0 ,25.9,0 ,62,0 ,26,0 ,25,0 
2004/6/1 18:30,21.9,0,33,0 ,25.9,0 ,62,0 ,25.9,0 ,25,0 
2004/6/1 18:45,21.6,0,33,0 ,25.9,0 ,61,0 ,25.9,0 ,25.1,0 
2004/6/1 19:00,21.5,0,35,0 ,25.9,0 ,61,0 ,25.8,0 ,25.1,0 
2004/6/1 19:15,21.5,0,42,0 ,25.9,0 ,61,0 ,25.8,0 ,25.1,0 
2004/6/1 19:30,21.3,0,43,0 ,25.9,0 ,61,0 ,25.7,0 ,25.1,0 
2004/6/1 19:45,21,0,43,0 ,25.9,0 ,61,0 ,25.6,0 ,25.2,0 
2004/6/1 20:00,20.8,0,44,0 ,25.9,0 ,61,0 ,25.6,0 ,25.2,0 
2004/6/1 20:15,20.6,0,44,0 ,25.9,0 ,60,0 ,25.5,0 ,25.2,0 
2004/6/1 20:30,18.9,0,50,0 ,25.8,0 ,60,0 ,25.4,0 ,25.2,0 
2004/6/1 20:45,18.6,0,50,0 ,25.8,0 ,60,0 ,25.4,0 ,25.2,0 
2004/6/1 21:00,19.1,0,48,0 ,25.8,0 ,60,0 ,25.3,0 ,25.2,0 
2004/6/1 21:15,17.9,0,55,0 ,25.7,0 ,56,0 ,25.3,0 ,25.2,0 
2004/6/1 21:30,18.2,0,52,0 ,25.7,0 ,59,0 ,25.3,0 ,25.2,0 
2004/6/1 21:45,18.4,0,54,0 ,25.7,0 ,60,0 ,25.3,0 ,25.2,0 
2004/6/1 22:00,18.2,0,55,0 ,25.8,0 ,60,0 ,25.3,0 ,25.3,0 
2004/6/1 22:15,18,0,55,0 ,25.8,0 ,60,0 ,25.3,0 ,25.3,0 
2004/6/1 22:30,17.9,0,54,0 ,25.7,0 ,61,0 ,25.3,0 ,25.3,0 
2004/6/1 22:45,17.3,0,55,0 ,25.8,0 ,61,0 ,25.3,0 ,24.5,0 
2004/6/1 23:00,16.8,0,57,0 ,25.8,0 ,61,0 ,25.4,0 ,24.5,0 
2004/6/1 23:15,17.1,0,58,0 ,25.8,0 ,62,0 ,25.5,0 ,23.6,0 
2004/6/1 23:30,16.4,0,69,0 ,25.9,0 ,62,0 ,25.6,0 ,23.8,0 
2004/6/1 23:45,16.2,0,70,0 ,25.8,0 ,63,0 ,25.6,0 ,23.9,0 
2004/6/2 0:00,16.1,0,68,0 ,25.9,0 ,62,0 ,25.5,0 ,24,0 
2004/6/2 0:15,15.9,0,70,0 ,25.9,0 ,60,0 ,25.5,0 ,24.1,0 
2004/6/2 0:30,15.8,0,71,0 ,25.9,0 ,59,0 ,25.4,0 ,24.1,0 
2004/6/2 0:45,15.8,0,72,0 ,25.8,0 ,59,0 ,25.3,0 ,24.2,0 
2004/6/2 1:00,15.6,0,73,0 ,25.7,0 ,58,0 ,25.2,0 ,24.2,0 
2004/6/2 1:15,15.3,0,73,0 ,25.7,0 ,58,0 ,25.2,0 ,24.2,0 
2004/6/2 1:30,15.3,0,74,0 ,25.6,0 ,58,0 ,25.1,0 ,24.2,0 
2004/6/2 1:45,15,0,76,0 ,25.6,0 ,57,0 ,25,0 ,24.2,0 
2004/6/2 2:00,15.2,0,76,0 ,25.5,0 ,57,0 ,25,0 ,24.3,0 
2004/6/2 2:15,14.9,0,76,0 ,25.5,0 ,57,0 ,25,0 ,24.3,0 
2004/6/2 2:30,14.8,0,75,0 ,25.4,0 ,56,0 ,24.9,0 ,24.3,0 
2004/6/2 2:45,14.5,0,76,0 ,25.4,0 ,56,0 ,24.9,0 ,24.3,0 
2004/6/2 3:00,14.5,0,76,0 ,25.3,0 ,56,0 ,24.9,0 ,24.3,0 
2004/6/2 3:15,14.4,0,77,0 ,25.3,0 ,56,0 ,24.8,0 ,24.3,0 
2004/6/2 3:30,14.2,0,77,0 ,25.2,0 ,56,0 ,24.8,0 ,24.3,0 
2004/6/2 3:45,13.9,0,78,0 ,25.2,0 ,55,0 ,24.8,0 ,24.3,0 
2004/6/2 4:00,13.4,0,82,0 ,25.2,0 ,55,0 ,24.7,0 ,24.3,0 
2004/6/2 4:15,13.4,0,81,0 ,25.2,0 ,55,0 ,24.7,0 ,24.3,0 
2004/6/2 4:30,13.7,0,79,0 ,25.1,0 ,55,0 ,24.7,0 ,24.3,0 
2004/6/2 4:45,13.7,0,78,0 ,25.1,0 ,55,0 ,24.7,0 ,24.3,0 
2004/6/2 5:00,14.3,0,75,0 ,25.1,0 ,55,0 ,24.7,0 ,24.4,0 
2004/6/2 5:15,14.3,0,73,0 ,25.1,0 ,55,0 ,24.7,0 ,24.4,0 
2004/6/2 5:30,15.2,0,71,0 ,25.2,0 ,56,0 ,24.6,0 ,24.4,0 
2004/6/2 5:45,15.5,0,68,0 ,25.2,0 ,56,0 ,24.7,0 ,23.6,0 
2004/6/2 6:00,16.2,0,68,0 ,24.7,0 ,49,0 ,24.7,0 ,23.2,0 
2004/6/2 6:15,17,0,66,0 ,23.7,0 ,47,0 ,24.7,0 ,23.3,0 
2004/6/2 6:30,17.6,0,61,0 ,23.5,0 ,48,0 ,24.7,0 ,23.4,0 
2004/6/2 6:45,17.8,0,61,0 ,23.6,0 ,48,0 ,24.6,0 ,23.4,0 
2004/6/2 7:00,18.5,0,57,0 ,23.8,0 ,49,0 ,24.6,0 ,23.4,0 
2004/6/2 7:15,18.9,0,55,0 ,23.9,0 ,48,0 ,24.6,0 ,23.5,0 
2004/6/2 7:30,20.1,0,54,0 ,24.1,0 ,50,0 ,24.6,0 ,23.3,0 
2004/6/2 7:45,19.6,0,54,0 ,24.2,0 ,49,0 ,24.6,0 ,23.2,0 
2004/6/2 8:00,20.5,0,51,0 ,24.3,0 ,51,0 ,24.6,0 ,23.3,0 
2004/6/2 8:15,20.9,0,48,0 ,24.4,0 ,49,0 ,24.6,0 ,23.4,0 
2004/6/2 8:30,21.3,0,44,0 ,24.4,0 ,48,0 ,24.6,0 ,23.4,0 
2004/6/2 8:45,22.7,0,40,0 ,24.5,0 ,48,0 ,24.6,0 ,23.5,0 
2004/6/2 9:00,23.4,0,35,0 ,24.5,0 ,45,0 ,24.5,0 ,23.5,0 
2004/6/2 9:15,24.4,0,29,0 ,24.5,0 ,45,0 ,24.5,0 ,23.6,0 
2004/6/2 9:30,24.2,0,32,0 ,24.5,0 ,46,0 ,24.5,0 ,23.6,0 
2004/6/2 9:45,24,0,31,0 ,24.5,0 ,46,0 ,24.5,0 ,23.7,0 
2004/6/2 10:00,25.1,0,25,0 ,24.6,0 ,44,0 ,24.5,0 ,23.7,0 
2004/6/2 10:15,25.2,0,27,0 ,24.6,0 ,45,0 ,24.5,0 ,23.8,0 
2004/6/2 10:30,26.8,0,25,0 ,24.6,0 ,44,0 ,24.5,0 ,23.8,0 
2004/6/2 10:45,27.4,0,14,0 ,24.5,0 ,41,0 ,24.5,0 ,23.9,0 
2004/6/2 11:00,27.7,0,14,0 ,24.5,0 ,41,0 ,24.4,0 ,23.9,0 
2004/6/2 11:15,26,0,15,0 ,24.5,0 ,41,0 ,24.4,0 ,23.9,0 
2004/6/2 11:30,25.5,0,15,0 ,24.5,0 ,40,0 ,24.4,0 ,24,0 
2004/6/2 11:45,24.8,0,15,0 ,24.5,0 ,39,0 ,24.4,0 ,24,0 
2004/6/2 12:00,25.1,0,16,0 ,24.5,0 ,38,0 ,24.3,0 ,24,0 
2004/6/2 12:15,25.5,0,15,0 ,24.5,0 ,37,0 ,24.3,0 ,24,0 
2004/6/2 12:30,25.1,0,16,0 ,24.5,0 ,35,0 ,24.3,0 ,24.1,0 
2004/6/2 12:45,24.6,0,15,0 ,24.5,0 ,36,0 ,24.3,0 ,24.1,0 
2004/6/2 13:00,25.2,0,15,0 ,24.5,0 ,33,0 ,24.3,0 ,24.1,0 
2004/6/2 13:15,25.6,0,15,0 ,24.5,0 ,33,0 ,24.3,0 ,24.1,0 
2004/6/2 13:30,25.5,0,14,0 ,24.5,0 ,34,0 ,24.3,0 ,24.1,0 
2004/6/2 13:45,25.6,0,14,0 ,24.5,0 ,32,0 ,24.3,0 ,24.1,0 
2004/6/2 14:00,25.5,0,15,0 ,24.5,0 ,31,0 ,24.3,0 ,24.2,0 
2004/6/2 14:15,25.3,0,14,0 ,24.5,0 ,32,0 ,24.3,0 ,24.2,0 
2004/6/2 14:30,25.3,0,15,0 ,24.5,0 ,31,0 ,24.3,0 ,24.2,0 
2004/6/2 14:45,25.4,0,15,0 ,24.5,0 ,30,0 ,24.3,0 ,24.2,0 
2004/6/2 15:00,25.2,0,17,0 ,24.5,0 ,31,0 ,24.2,0 ,24.2,0 
2004/6/2 15:15,25.6,0,15,0 ,24.5,0 ,31,0 ,24.2,0 ,24.2,0 
2004/6/2 15:30,25.5,0,14,0 ,24.6,0 ,31,0 ,24.2,0 ,24.2,0 
2004/6/2 15:45,25.2,0,15,0 ,24.6,0 ,30,0 ,24.2,0 ,24.2,0 
2004/6/2 16:00,25.5,0,14,0 ,24.6,0 ,31,0 ,24.2,0 ,24.3,0 
2004/6/2 16:15,25.3,0,14,0 ,24.6,0 ,31,0 ,24.3,0 ,24.3,0 
2004/6/2 16:30,25.5,0,14,0 ,24.6,0 ,31,0 ,24.3,0 ,24.3,0 
2004/6/2 16:45,25.3,0,14,0 ,24.6,0 ,30,0 ,24.3,0 ,24.3,0 
2004/6/2 17:00,25.5,0,16,0 ,24.6,0 ,30,0 ,24.3,0 ,24.3,0 
2004/6/2 17:15,25.2,0,15,0 ,24.7,0 ,30,0 ,24.4,0 ,24.3,0 
2004/6/2 17:30,24.9,0,17,0 ,24.7,0 ,31,0 ,24.4,0 ,24.3,0 
2004/6/2 17:45,24.5,0,20,0 ,24.7,0 ,34,0 ,24.4,0 ,24.4,0 
2004/6/2 18:00,24.1,0,23,0 ,24.7,0 ,35,0 ,24.4,0 ,24.4,0 
2004/6/2 18:15,23.9,0,25,0 ,24.7,0 ,34,0 ,24.4,0 ,24.4,0 
2004/6/2 18:30,23.5,0,28,0 ,24.7,0 ,32,0 ,24.4,0 ,24.4,0 
2004/6/2 18:45,23.2,0,30,0 ,24.7,0 ,33,0 ,24.4,0 ,24.4,0 
2004/6/2 19:00,23,0,30,0 ,24.6,0 ,33,0 ,24.4,0 ,24.4,0 
2004/6/2 19:15,22.7,0,31,0 ,24.5,0 ,32,0 ,24.4,0 ,24.4,0 
2004/6/2 19:30,22.5,0,29,0 ,24.5,0 ,36,0 ,24.3,0 ,24.4,0 
2004/6/2 19:45,22.3,0,28,0 ,24.7,0 ,40,0 ,24.4,0 ,24.4,0 
2004/6/2 20:00,22.2,0,29,0 ,24.8,0 ,44,0 ,24.5,0 ,24.4,0 
2004/6/2 20:15,21.9,0,29,0 ,24.8,0 ,45,0 ,24.6,0 ,24.5,0 
2004/6/2 20:30,21.8,0,29,0 ,24.9,0 ,45,0 ,24.7,0 ,24.1,0 
2004/6/2 20:45,21.6,0,29,0 ,24.9,0 ,44,0 ,24.7,0 ,23.7,0 
2004/6/2 21:00,20.8,0,37,0 ,25,0 ,45,0 ,24.7,0 ,23.8,0 
2004/6/2 21:15,20.7,0,36,0 ,25.1,0 ,45,0 ,24.7,0 ,23.8,0 
2004/6/2 21:30,19.2,0,40,0 ,25.2,0 ,46,0 ,24.7,0 ,23.3,0 
2004/6/2 21:45,19.4,0,38,0 ,25.2,0 ,47,0 ,24.7,0 ,23,0 
2004/6/2 22:00,19.2,0,38,0 ,25.3,0 ,47,0 ,24.8,0 ,23.2,0 
2004/6/2 22:15,19.9,0,34,0 ,25.3,0 ,47,0 ,24.8,0 ,23.3,0 
2004/6/2 22:30,19.8,0,33,0 ,25.3,0 ,49,0 ,24.9,0 ,23.4,0 
2004/6/2 22:45,19.6,0,35,0 ,25.3,0 ,49,0 ,24.9,0 ,23.4,0 
2004/6/2 23:00,18.8,0,44,0 ,25.4,0 ,49,0 ,24.9,0 ,23.5,0 
2004/6/2 23:15,18.9,0,42,0 ,25.4,0 ,48,0 ,25,0 ,23.2,0 
2004/6/2 23:30,18.7,0,47,0 ,25.5,0 ,48,0 ,24.9,0 ,23.3,0 
2004/6/2 23:45,18.4,0,50,0 ,25.5,0 ,48,0 ,24.9,0 ,23.4,0 
2004/6/3 0:00,17.9,0,53,0 ,25.5,0 ,47,0 ,24.9,0 ,23.5,0 
2004/6/3 0:15,18,0,48,0 ,25.5,0 ,46,0 ,24.8,0 ,23.5,0 
2004/6/3 0:30,17.9,0,48,0 ,25.5,0 ,45,0 ,24.8,0 ,23.6,0 
2004/6/3 0:45,17.4,0,50,0 ,25.5,0 ,45,0 ,24.7,0 ,23.6,0 
2004/6/3 1:00,17.4,0,51,0 ,25.5,0 ,45,0 ,24.7,0 ,23.6,0 
2004/6/3 1:15,17.3,0,51,0 ,25.5,0 ,44,0 ,24.7,0 ,23.7,0 
2004/6/3 1:30,16.8,0,53,0 ,25.5,0 ,44,0 ,24.6,0 ,23.7,0 
2004/6/3 1:45,16.6,0,55,0 ,25.4,0 ,44,0 ,24.6,0 ,23.8,0 
2004/6/3 2:00,16.5,0,55,0 ,25.4,0 ,44,0 ,24.6,0 ,23.8,0 
2004/6/3 2:15,16.5,0,56,0 ,25.4,0 ,44,0 ,24.6,0 ,23.8,0 
2004/6/3 2:30,16.1,0,59,0 ,25.3,0 ,44,0 ,24.5,0 ,23.8,0 
2004/6/3 2:45,15.4,0,61,0 ,25.3,0 ,44,0 ,24.5,0 ,23.8,0 
2004/6/3 3:00,14.8,0,65,0 ,25.3,0 ,44,0 ,24.5,0 ,23.9,0 
2004/6/3 3:15,14.8,0,66,0 ,25.2,0 ,44,0 ,24.5,0 ,23.9,0 
2004/6/3 3:30,14.7,0,67,0 ,25.2,0 ,44,0 ,24.4,0 ,23.9,0 
2004/6/3 3:45,14.7,0,66,0 ,25.2,0 ,44,0 ,24.4,0 ,23.9,0 
2004/6/3 4:00,14.7,0,65,0 ,25.2,0 ,44,0 ,24.4,0 ,23.9,0 
2004/6/3 4:15,14.3,0,65,0 ,25.1,0 ,44,0 ,24.4,0 ,23.9,0 
2004/6/3 4:30,14.3,0,66,0 ,25.1,0 ,44,0 ,24.4,0 ,23.9,0 
2004/6/3 4:45,14.5,0,67,0 ,25,0 ,44,0 ,24.3,0 ,23.9,0 
2004/6/3 5:00,14.7,0,65,0 ,25,0 ,44,0 ,24.3,0 ,23.9,0 
2004/6/3 5:15,15.2,0,63,0 ,25.1,0 ,45,0 ,24.3,0 ,23.6,0 
2004/6/3 5:30,15.8,0,60,0 ,25.1,0 ,45,0 ,24.3,0 ,23.6,0 
2004/6/3 5:45,15.2,0,62,0 ,25.1,0 ,46,0 ,24.3,0 ,23.7,0 
2004/6/3 6:00,16.9,0,56,0 ,25.2,0 ,46,0 ,24.4,0 ,23.3,0 
2004/6/3 6:15,17.9,0,53,0 ,25.2,0 ,47,0 ,24.4,0 ,22.8,0 
2004/6/3 6:30,17.7,0,53,0 ,25.2,0 ,41,0 ,24.5,0 ,22.9,0 
2004/6/3 6:45,18.4,0,52,0 ,25.1,0 ,42,0 ,24.5,0 ,22.5,0 
2004/6/3 7:00,19.4,0,48,0 ,25.1,0 ,43,0 ,24.4,0 ,22.6,0 
2004/6/3 7:15,20,0,48,0 ,25,0 ,40,0 ,24.4,0 ,22.8,0 
2004/6/3 7:30,19.4,0,50,0 ,24.5,0 ,40,0 ,24.4,0 ,22.6,0 
2004/6/3 7:45,21.4,0,44,0 ,24.7,0 ,42,0 ,24.4,0 ,22.7,0 
2004/6/3 8:00,20.9,0,40,0 ,24.8,0 ,41,0 ,24.4,0 ,22.9,0 
2004/6/3 8:15,22.3,0,33,0 ,24.8,0 ,40,0 ,24.4,0 ,22.9,0 
2004/6/3 8:30,22.6,0,32,0 ,24.8,0 ,39,0 ,24.4,0 ,23,0 
2004/6/3 8:45,22,0,35,0 ,24.8,0 ,38,0 ,24.3,0 ,23.1,0 
2004/6/3 9:00,22.8,0,32,0 ,24.7,0 ,38,0 ,24.3,0 ,23.2,0 
2004/6/3 9:15,22.6,0,31,0 ,24.7,0 ,37,0 ,24.3,0 ,23.2,0 
2004/6/3 9:30,23.5,0,22,0 ,24.7,0 ,36,0 ,24.3,0 ,23.3,0 
2004/6/3 9:45,24.9,0,21,0 ,24.7,0 ,36,0 ,24.3,0 ,23.3,0 
2004/6/3 10:00,24.9,0,20,0 ,24.7,0 ,35,0 ,24.2,0 ,23.4,0 
2004/6/3 10:15,25.1,0,21,0 ,24.7,0 ,34,0 ,24.2,0 ,23.4,0 
2004/6/3 10:30,25.7,0,15,0 ,24.7,0 ,36,0 ,24.2,0 ,23.4,0 
2004/6/3 10:45,24.7,0,15,0 ,24.6,0 ,30,0 ,24.2,0 ,23.4,0 
2004/6/3 11:00,25.5,0,16,0 ,24.6,0 ,34,0 ,24.1,0 ,23.5,0 
2004/6/3 11:15,24.9,0,17,0 ,24.5,0 ,31,0 ,24.1,0 ,23.5,0 
2004/6/3 11:30,24.1,0,18,0 ,24.6,0 ,34,0 ,24.1,0 ,23.5,0 
2004/6/3 11:45,24.5,0,18,0 ,24.5,0 ,33,0 ,24.1,0 ,23.6,0 
2004/6/3 12:00,24.4,0,18,0 ,24.5,0 ,29,0 ,24,0 ,23.6,0 
2004/6/3 12:15,24.6,0,17,0 ,24.6,0 ,29,0 ,24,0 ,23.6,0 
2004/6/3 12:30,25,0,16,0 ,24.6,0 ,27,0 ,24,0 ,23.6,0 
2004/6/3 12:45,25.1,0,15,0 ,24.6,0 ,28,0 ,24,0 ,23.6,0 
2004/6/3 13:00,24.9,0,17,0 ,24.5,0 ,28,0 ,24,0 ,23.7,0 
2004/6/3 13:15,24.6,0,17,0 ,24.5,0 ,29,0 ,24,0 ,23.7,0 
2004/6/3 13:30,25,0,17,0 ,24.5,0 ,28,0 ,24,0 ,23.7,0 
2004/6/3 13:45,25,0,18,0 ,24.6,0 ,29,0 ,24,0 ,23.7,0 
2004/6/3 14:00,25.3,0,18,0 ,24.6,0 ,30,0 ,24.1,0 ,23.8,0 
2004/6/3 14:15,24.9,0,18,0 ,24.6,0 ,30,0 ,24.1,0 ,23.8,0 
2004/6/3 14:30,25.1,0,19,0 ,24.7,0 ,30,0 ,24.1,0 ,23.8,0 
2004/6/3 14:45,25.3,0,18,0 ,24.7,0 ,30,0 ,24.1,0 ,23.8,0 
2004/6/3 15:00,25.3,0,18,0 ,24.7,0 ,29,0 ,24.1,0 ,23.8,0 
2004/6/3 15:15,25.1,0,18,0 ,24.7,0 ,29,0 ,24.1,0 ,23.9,0 
2004/6/3 15:30,25,0,19,0 ,24.7,0 ,28,0 ,24.1,0 ,23.9,0 
2004/6/3 15:45,25.1,0,19,0 ,24.7,0 ,29,0 ,24.1,0 ,23.9,0 
2004/6/3 16:00,25,0,19,0 ,24.7,0 ,29,0 ,24.1,0 ,23.9,0 
2004/6/3 16:15,25.2,0,20,0 ,24.7,0 ,29,0 ,24.1,0 ,23.9,0 
2004/6/3 16:30,25.1,0,18,0 ,24.7,0 ,29,0 ,24.2,0 ,24,0 
2004/6/3 16:45,25,0,20,0 ,24.8,0 ,30,0 ,24.4,0 ,24,0 
2004/6/3 17:00,24.8,0,20,0 ,24.8,0 ,30,0 ,24.5,0 ,24,0 
2004/6/3 17:15,24.7,0,21,0 ,24.8,0 ,32,0 ,24.7,0 ,24,0 
2004/6/3 17:30,24.7,0,21,0 ,24.8,0 ,32,0 ,24.9,0 ,24.1,0 
2004/6/3 17:45,24.4,0,22,0 ,24.8,0 ,31,0 ,25.1,0 ,24.1,0 
2004/6/3 18:00,24.2,0,23,0 ,24.8,0 ,30,0 ,25.2,0 ,24.1,0 
2004/6/3 18:15,23.9,0,22,0 ,24.9,0 ,31,0 ,25.3,0 ,24.1,0 
2004/6/3 18:30,23.8,0,23,0 ,24.8,0 ,31,0 ,25.3,0 ,24.2,0 
2004/6/3 18:45,23.5,0,24,0 ,24.9,0 ,33,0 ,25.3,0 ,23.4,0 
2004/6/3 19:00,23.3,0,25,0 ,24.9,0 ,37,0 ,25.3,0 ,23.4,0 
2004/6/3 19:15,22.7,0,27,0 ,25.1,0 ,37,0 ,25.3,0 ,23.5,0 
2004/6/3 19:30,22.5,0,29,0 ,25.1,0 ,38,0 ,25.2,0 ,23.5,0 
2004/6/3 19:45,22.4,0,29,0 ,25.1,0 ,39,0 ,25.2,0 ,23.6,0 
2004/6/3 20:00,22.1,0,30,0 ,25.2,0 ,40,0 ,25.1,0 ,23.6,0 
2004/6/3 20:15,21,0,34,0 ,25.2,0 ,41,0 ,25.2,0 ,22.4,0 
2004/6/3 20:30,20.5,0,32,0 ,25.3,0 ,43,0 ,25.2,0 ,22.6,0 
2004/6/3 20:45,20.4,0,34,0 ,25.3,0 ,44,0 ,25.3,0 ,22.7,0 
2004/6/3 21:00,19.6,0,35,0 ,25.4,0 ,45,0 ,25.3,0 ,22.8,0 
2004/6/3 21:15,19.7,0,37,0 ,25.5,0 ,45,0 ,25.2,0 ,22.9,0 
2004/6/3 21:30,19.9,0,37,0 ,25.5,0 ,46,0 ,25.3,0 ,23,0 
2004/6/3 21:45,19.4,0,37,0 ,25.5,0 ,45,0 ,25.2,0 ,23.1,0 
2004/6/3 22:00,19.5,0,39,0 ,25.5,0 ,45,0 ,25.2,0 ,23.2,0 
2004/6/3 22:15,19.5,0,43,0 ,25.5,0 ,44,0 ,25.1,0 ,23.2,0 
2004/6/3 22:30,19.1,0,43,0 ,25.5,0 ,44,0 ,25,0 ,23.3,0 
2004/6/3 22:45,19,0,46,0 ,25.5,0 ,44,0 ,25,0 ,23.4,0 
2004/6/3 23:00,18.6,0,48,0 ,25.5,0 ,43,0 ,25,0 ,23.4,0 
2004/6/3 23:15,18.5,0,48,0 ,25.5,0 ,43,0 ,24.9,0 ,23.4,0 
2004/6/3 23:30,18.5,0,48,0 ,25.5,0 ,42,0 ,24.9,0 ,23.5,0 
2004/6/3 23:45,18.2,0,50,0 ,25.5,0 ,41,0 ,24.9,0 ,23.5,0 
2004/6/4 0:00,18.1,0,50,0 ,25.5,0 ,41,0 ,24.8,0 ,23.5,0 
2004/6/4 0:15,17.9,0,51,0 ,25.5,0 ,41,0 ,24.8,0 ,23.6,0 
2004/6/4 0:30,17.8,0,50,0 ,25.5,0 ,41,0 ,24.7,0 ,23.6,0 
2004/6/4 0:45,17.2,0,54,0 ,25.5,0 ,41,0 ,24.7,0 ,23.6,0 
2004/6/4 1:00,16.7,0,54,0 ,25.4,0 ,41,0 ,24.7,0 ,23.6,0 
2004/6/4 1:15,16.6,0,54,0 ,25.4,0 ,40,0 ,24.6,0 ,23.7,0 
2004/6/4 1:30,16.6,0,54,0 ,25.4,0 ,40,0 ,24.6,0 ,23.7,0 
2004/6/4 1:45,16.3,0,56,0 ,25.3,0 ,40,0 ,24.6,0 ,23.7,0 
2004/6/4 2:00,16.1,0,56,0 ,25.3,0 ,40,0 ,24.6,0 ,23.7,0 
2004/6/4 2:15,15.9,0,58,0 ,25.3,0 ,40,0 ,24.5,0 ,23.7,0 
2004/6/4 2:30,15.7,0,59,0 ,25.2,0 ,41,0 ,24.5,0 ,23.8,0 
2004/6/4 2:45,15.5,0,61,0 ,25.2,0 ,41,0 ,24.5,0 ,23.8,0 
2004/6/4 3:00,15.6,0,60,0 ,25.2,0 ,41,0 ,24.5,0 ,23.8,0 
2004/6/4 3:15,15.5,0,59,0 ,25.1,0 ,41,0 ,24.4,0 ,23.8,0 
2004/6/4 3:30,15.3,0,61,0 ,25.1,0 ,41,0 ,24.4,0 ,23.8,0 
2004/6/4 3:45,15,0,64,0 ,25.1,0 ,41,0 ,24.4,0 ,23.8,0 
2004/6/4 4:00,14.8,0,63,0 ,25,0 ,41,0 ,24.4,0 ,23.8,0 
2004/6/4 4:15,14.6,0,64,0 ,25,0 ,41,0 ,24.3,0 ,23.8,0 
2004/6/4 4:30,14.5,0,65,0 ,25,0 ,41,0 ,24.3,0 ,23.8,0 
2004/6/4 4:45,14.6,0,65,0 ,24.9,0 ,41,0 ,24.3,0 ,23.8,0 
2004/6/4 5:00,15,0,62,0 ,25,0 ,41,0 ,24.3,0 ,23.8,0 
2004/6/4 5:15,15.7,0,60,0 ,25,0 ,42,0 ,24.3,0 ,23.8,0 
2004/6/4 5:30,16.8,0,57,0 ,25.1,0 ,43,0 ,24.3,0 ,23.8,0 
2004/6/4 5:45,17.2,0,55,0 ,25.1,0 ,44,0 ,24.4,0 ,22.6,0 
2004/6/4 6:00,17.9,0,54,0 ,24.9,0 ,42,0 ,24.4,0 ,22.7,0 
2004/6/4 6:15,17.4,0,55,0 ,24.7,0 ,43,0 ,24.5,0 ,22.4,0 
2004/6/4 6:30,17.2,0,56,0 ,24.5,0 ,40,0 ,24.4,0 ,22.3,0 
2004/6/4 6:45,18,0,54,0 ,24.6,0 ,43,0 ,24.4,0 ,22.5,0 
2004/6/4 7:00,19.2,0,52,0 ,24.8,0 ,44,0 ,24.4,0 ,22.6,0 
2004/6/4 7:15,20.2,0,49,0 ,24.6,0 ,40,0 ,24.5,0 ,22.7,0 
2004/6/4 7:30,20.7,0,49,0 ,24.5,0 ,41,0 ,24.4,0 ,21.9,0 
2004/6/4 7:45,22.3,0,44,0 ,24.7,0 ,42,0 ,24.4,0 ,22.1,0 
2004/6/4 8:00,23.2,0,41,0 ,24.8,0 ,43,0 ,24.4,0 ,22.2,0 
2004/6/4 8:15,23.8,0,41,0 ,24.9,0 ,43,0 ,24.4,0 ,22.3,0 
2004/6/4 8:30,24,0,38,0 ,25,0 ,43,0 ,24.4,0 ,22.4,0 
2004/6/4 8:45,24.4,0,38,0 ,25,0 ,43,0 ,24.4,0 ,22.5,0 
2004/6/4 9:00,25.3,0,35,0 ,25,0 ,42,0 ,24.4,0 ,22.6,0 
2004/6/4 9:15,25.9,0,31,0 ,25,0 ,42,0 ,24.4,0 ,22.7,0 
2004/6/4 9:30,25.6,0,32,0 ,25.1,0 ,42,0 ,24.4,0 ,22.7,0 
2004/6/4 9:45,25.6,0,32,0 ,25.1,0 ,41,0 ,24.4,0 ,22.8,0 
2004/6/4 10:00,26.3,0,29,0 ,25.1,0 ,41,0 ,24.4,0 ,22.8,0 
2004/6/4 10:15,26.9,0,27,0 ,25.1,0 ,41,0 ,24.4,0 ,22.9,0 
2004/6/4 10:30,26.6,0,26,0 ,25.1,0 ,41,0 ,24.3,0 ,23,0 
2004/6/4 10:45,27.4,0,25,0 ,25.1,0 ,40,0 ,24.3,0 ,23,0 
2004/6/4 11:00,27.7,0,24,0 ,25.1,0 ,39,0 ,24.3,0 ,23,0 
2004/6/4 11:15,26.7,0,20,0 ,25.1,0 ,38,0 ,24.3,0 ,23.1,0 
2004/6/4 11:30,27.1,0,20,0 ,25.1,0 ,36,0 ,24.3,0 ,23.1,0 
2004/6/4 11:45,27.1,0,20,0 ,25.1,0 ,34,0 ,24.3,0 ,23.2,0 
2004/6/4 12:00,27.2,0,19,0 ,25.1,0 ,33,0 ,24.3,0 ,23.2,0 
2004/6/4 12:15,27.4,0,20,0 ,25,0 ,33,0 ,24.3,0 ,23.2,0 
2004/6/4 12:30,27.6,0,21,0 ,25.1,0 ,34,0 ,24.4,0 ,23.3,0 
2004/6/4 12:45,27.8,0,20,0 ,25.1,0 ,34,0 ,24.4,0 ,23.3,0 
2004/6/4 13:00,28.1,0,21,0 ,25.1,0 ,35,0 ,24.4,0 ,23.4,0 
2004/6/4 13:15,27.9,0,23,0 ,25.1,0 ,35,0 ,24.5,0 ,23.4,0 
2004/6/4 13:30,28.1,0,23,0 ,25.1,0 ,35,0 ,24.5,0 ,23.4,0 
2004/6/4 13:45,28.2,0,22,0 ,25.1,0 ,36,0 ,24.5,0 ,23.4,0 
2004/6/4 14:00,28.6,0,23,0 ,25.2,0 ,36,0 ,24.6,0 ,23.5,0 
2004/6/4 14:15,28.4,0,23,0 ,25.2,0 ,36,0 ,24.6,0 ,23.5,0 
2004/6/4 14:30,28.6,0,23,0 ,25.1,0 ,36,0 ,24.6,0 ,23.6,0 
2004/6/4 14:45,28.9,0,23,0 ,25.2,0 ,36,0 ,24.7,0 ,23.6,0 
2004/6/4 15:00,28.9,0,22,0 ,25.2,0 ,36,0 ,24.7,0 ,23.6,0 
2004/6/4 15:15,28.8,0,21,0 ,25.2,0 ,36,0 ,24.7,0 ,23.7,0 
2004/6/4 15:30,29,0,21,0 ,25.2,0 ,36,0 ,24.7,0 ,23.7,0 
2004/6/4 15:45,28.9,0,22,0 ,25.2,0 ,36,0 ,24.8,0 ,23.7,0 
2004/6/4 16:00,29,0,21,0 ,25.3,0 ,36,0 ,24.8,0 ,23.8,0 
2004/6/4 16:15,29,0,21,0 ,25.3,0 ,36,0 ,24.8,0 ,23.8,0 
2004/6/4 16:30,29.1,0,22,0 ,25.3,0 ,36,0 ,24.9,0 ,23.8,0 
2004/6/4 16:45,29,0,22,0 ,25.2,0 ,36,0 ,25,0 ,23.9,0 
2004/6/4 17:00,28.9,0,21,0 ,25.3,0 ,36,0 ,25.2,0 ,23.9,0 
2004/6/4 17:15,28.9,0,22,0 ,25.3,0 ,36,0 ,25.3,0 ,23.9,0 
2004/6/4 17:30,28.8,0,23,0 ,25.3,0 ,36,0 ,25.4,0 ,24,0 
2004/6/4 17:45,28.7,0,23,0 ,25.3,0 ,36,0 ,25.5,0 ,24,0 
2004/6/4 18:00,28.6,0,24,0 ,25.3,0 ,36,0 ,25.6,0 ,24,0 
2004/6/4 18:15,28.3,0,25,0 ,25.4,0 ,36,0 ,25.6,0 ,24.1,0 
2004/6/4 18:30,28,0,27,0 ,25.4,0 ,37,0 ,25.6,0 ,24.1,0 
2004/6/4 18:45,27.5,0,29,0 ,25.4,0 ,38,0 ,25.6,0 ,24.2,0 
2004/6/4 19:00,26.8,0,32,0 ,25.4,0 ,39,0 ,25.5,0 ,24.2,0 
2004/6/4 19:15,26.3,0,33,0 ,25.4,0 ,39,0 ,25.5,0 ,24.2,0 
2004/6/4 19:30,26,0,34,0 ,25.5,0 ,40,0 ,25.4,0 ,23.6,0 
2004/6/4 19:45,25.3,0,35,0 ,25.5,0 ,40,0 ,25.4,0 ,23,0 
2004/6/4 20:00,24.5,0,36,0 ,25.5,0 ,41,0 ,25.3,0 ,23.1,0 
2004/6/4 20:15,24,0,37,0 ,25.6,0 ,50,0 ,25.8,0 ,23.2,0 
2004/6/4 20:30,23.7,0,38,0 ,25.6,0 ,47,0 ,25.9,0 ,23.3,0 
2004/6/4 20:45,23.4,0,38,0 ,25.6,0 ,46,0 ,25.8,0 ,22.9,0 
2004/6/4 21:00,23.2,0,39,0 ,25.6,0 ,45,0 ,25.8,0 ,23,0 
2004/6/4 21:15,22.9,0,39,0 ,25.7,0 ,45,0 ,25.8,0 ,23.2,0 
2004/6/4 21:30,22.8,0,39,0 ,25.7,0 ,46,0 ,25.8,0 ,22.9,0 
2004/6/4 21:45,22.4,0,39,0 ,25.7,0 ,46,0 ,25.8,0 ,22.6,0 
2004/6/4 22:00,22,0,40,0 ,25.8,0 ,49,0 ,25.8,0 ,22.8,0 
2004/6/4 22:15,21.8,0,40,0 ,25.8,0 ,49,0 ,25.7,0 ,22.9,0 
2004/6/4 22:30,21.6,0,39,0 ,25.8,0 ,49,0 ,25.7,0 ,23.1,0 
2004/6/4 22:45,21.4,0,39,0 ,25.8,0 ,49,0 ,25.6,0 ,23.2,0 
2004/6/4 23:00,21.2,0,40,0 ,25.8,0 ,49,0 ,25.6,0 ,23.3,0 
2004/6/4 23:15,20.9,0,40,0 ,25.8,0 ,48,0 ,25.5,0 ,23.4,0 
2004/6/4 23:30,20.8,0,41,0 ,25.8,0 ,48,0 ,25.5,0 ,23.4,0 
2004/6/4 23:45,20.7,0,42,0 ,25.8,0 ,48,0 ,25.5,0 ,23.5,0 
2004/6/5 0:00,20.8,0,42,0 ,25.8,0 ,49,0 ,25.5,0 ,23,0 
2004/6/5 0:15,20.5,0,42,0 ,25.8,0 ,49,0 ,25.5,0 ,23.1,0 
2004/6/5 0:30,20.5,0,42,0 ,25.8,0 ,49,0 ,25.4,0 ,23.2,0 
2004/6/5 0:45,20.4,0,42,0 ,25.8,0 ,48,0 ,25.4,0 ,23.3,0 
2004/6/5 1:00,19.9,0,44,0 ,25.8,0 ,47,0 ,25.3,0 ,23.4,0 
2004/6/5 1:15,19.9,0,47,0 ,25.8,0 ,47,0 ,25.3,0 ,23.4,0 
2004/6/5 1:30,19.7,0,49,0 ,25.8,0 ,47,0 ,25.3,0 ,23.5,0 
2004/6/5 1:45,19.4,0,48,0 ,25.8,0 ,47,0 ,25.2,0 ,23.6,0 
2004/6/5 2:00,19.2,0,49,0 ,25.8,0 ,46,0 ,25.2,0 ,23.6,0 
2004/6/5 2:15,19.1,0,48,0 ,25.8,0 ,46,0 ,25.1,0 ,23.6,0 
2004/6/5 2:30,18.9,0,48,0 ,25.8,0 ,45,0 ,25,0 ,23.7,0 
2004/6/5 2:45,18.9,0,50,0 ,25.8,0 ,44,0 ,25,0 ,23.7,0 
2004/6/5 3:00,18.5,0,54,0 ,25.8,0 ,45,0 ,25,0 ,23.8,0 
2004/6/5 3:15,18.3,0,53,0 ,25.8,0 ,44,0 ,24.9,0 ,23.8,0 
2004/6/5 3:30,18.2,0,53,0 ,25.7,0 ,44,0 ,24.9,0 ,23.8,0 
2004/6/5 3:45,17.9,0,54,0 ,25.7,0 ,44,0 ,24.9,0 ,23.8,0 
2004/6/5 4:00,17.9,0,54,0 ,25.6,0 ,44,0 ,24.8,0 ,23.9,0 
2004/6/5 4:15,18,0,53,0 ,25.6,0 ,44,0 ,24.8,0 ,23.9,0 
2004/6/5 4:30,17.6,0,55,0 ,25.6,0 ,44,0 ,24.8,0 ,23.9,0 
2004/6/5 4:45,17.5,0,55,0 ,25.5,0 ,44,0 ,24.8,0 ,23.9,0 
2004/6/5 5:00,18,0,54,0 ,25.5,0 ,44,0 ,24.7,0 ,24,0 
2004/6/5 5:15,18.6,0,53,0 ,25.6,0 ,44,0 ,24.7,0 ,24,0 
2004/6/5 5:30,19,0,51,0 ,25.6,0 ,45,0 ,24.7,0 ,24,0 
2004/6/5 5:45,19.3,0,50,0 ,25.6,0 ,46,0 ,24.7,0 ,24,0 
2004/6/5 6:00,19.7,0,50,0 ,25.6,0 ,46,0 ,24.8,0 ,24,0 
2004/6/5 6:15,19.9,0,49,0 ,25.6,0 ,46,0 ,24.8,0 ,24,0 
2004/6/5 6:30,20.2,0,47,0 ,25.6,0 ,46,0 ,24.8,0 ,24.1,0 